Theta_e
322 322 322 322 323 322 322 322 322 322 322 322 323 323 323 323 322 316 307 315 319 339 335 317 314 311 315 318 321 320 308 304 305 309 313 323 319 324 328 323 325 326 327 329 331
321 321 322 322 322 322 322 322 322 322 323 323 323 322 322 322 313 312 324 337 343 340 309 310 310 316 316 318 317 313 305 309 314 315 317 321 320 321 322 321 321 322 327 328 326
321 321 321 321 321 321 321 321 322 322 323 322 322 322 322 320 310 313 338 340 342 338 312 314 315 319 314 316 318 318 310 315 318 323 323 319 319 322 319 316 321 318 317 326 321
320 320 321 321 320 320 320 321 321 322 322 321 321 322 322 315 299 310 345 343 343 320 313 318 319 314 312 310 317 315 320 319 319 325 322 318 320 316 317 317 323 317 318 318 317
319 320 320 320 319 320 320 320 320 321 320 321 321 322 313 305 309 326 345 342 324 312 315 319 316 316 310 312 312 313 319 322 324 322 321 320 317 316 315 318 318 317 317 316 316
318 319 319 319 319 319 319 319 319 319 320 321 322 322 314 302 315 328 321 322 314 311 312 317 318 318 315 315 312 315 319 320 320 319 318 315 315 317 318 319 315 314 315 316 316
318 318 318 319 319 319 319 318 317 318 320 322 322 321 312 308 317 322 318 314 315 315 311 314 323 319 317 313 318 318 310 313 314 320 316 318 312 313 318 317 313 313 314 316 317
317 317 318 318 318 319 319 318 318 319 320 322 323 316 306 316 318 316 313 314 315 315 316 325 325 318 316 319 313 310 309 302 306 318 318 317 306 315 319 316 313 312 312 314 315
316 317 317 317 318 319 318 317 318 320 321 323 316 311 306 319 315 316 316 315 313 314 325 329 323 314 312 307 303 305 298 302 307 314 315 313 308 316 319 317 314 311 311 313 314
315 315 316 317 317 317 316 316 320 320 320 322 321 304 308 309 312 316 316 317 312 319 318 315 306 306 306 303 297 300 300 303 303 310 313 310 310 315 318 318 316 313 312 313 314
315 315 316 316 317 316 310 308 310 310 313 305 305 304 308 315 315 312 315 312 309 306 299 302 304 300 303 308 307 306 303 302 305 310 307 307 309 313 317 317 317 315 314 314 314
315 314 316 316 316 315 309 305 311 312 305 313 314 313 313 314 310 313 313 306 305 300 301 301 300 308 312 312 309 307 303 301 307 310 308 307 307 311 313 313 316 315 315 315 316
314 315 315 316 315 309 308 311 314 311 304 309 313 313 312 314 310 311 310 306 303 299 301 299 304 313 311 307 306 303 302 302 302 307 308 304 301 306 311 312 313 312 312 315 315
314 314 315 314 310 310 308 316 311 311 300 304 308 314 312 309 307 312 311 307 301 299 305 304 308 310 307 306 306 299 308 308 305 301 295 303 289 303 308 307 309 311 312 310 315
314 314 314 313 304 306 312 311 309 311 291 308 307 312 308 308 307 308 310 306 301 306 306 303 305 305 304 306 308 302 308 307 306 300 297 297 291 296 307 303 305 307 309 309 311
314 314 313 311 309 311 312 308 311 299 294 306 307 304 304 305 306 312 311 314 310 310 309 305 312 310 307 310 310 309 306 301 298 294 288 293 292 291 297 303 306 309 310 312 311
313 313 310 313 306 308 309 311 298 293 307 308 303 305 303 309 309 311 309 306 303 299 298 304 306 311 311 304 306 300 293 286 285 287 287 297 290 292 301 306 307 307 310 311 311
311 309 307 312 305 308 313 307 294 303 307 313 312 310 302 312 310 311 308 303 307 304 299 297 296 306 309 304 301 298 293 288 283 285 288 297 289 293 303 307 307 309 309 311 311
308 306 306 306 310 310 309 300 300 306 313 312 310 304 304 309 310 309 305 305 305 305 298 297 298 309 308 307 304 300 295 297 292 291 287 291 296 301 306 306 307 306 306 306 307
304 312 313 309 312 313 305 299 307 315 316 314 305 307 301 303 306 306 303 306 306 307 305 301 295 305 307 307 305 301 302 291 290 283 283 289 290 290 296 300 305 305 306 306 307
309 305 310 310 314 306 299 302 309 317 317 311 307 305 303 305 306 303 302 305 307 306 305 300 298 299 303 299 297 297 295 295 293 290 285 286 289 297 295 299 302 305 306 306 307
313 302 316 311 302 303 302 310 311 315 312 310 309 307 304 307 305 301 301 304 311 307 302 302 297 293 296 303 304 298 295 295 289 287 288 287 287 299 296 297 300 303 305 307 307
309 312 321 310 297 300 308 312 315 312 309 308 307 308 309 304 300 305 304 309 313 310 304 303 296 291 294 296 300 294 295 296 292 291 287 284 286 299 298 298 298 297 299 302 303
310 306 305 306 307 306 306 308 309 315 309 309 308 309 306 305 306 303 304 312 316 314 315 307 296 295 289 291 295 291 294 295 291 285 287 287 290 295 297 296 299 302 301 301 304
312 308 306 297 303 306 307 309 307 306 309 308 306 306 304 301 305 305 307 309 313 314 307 301 293 295 297 297 296 295 295 295 291 290 287 290 293 296 301 302 304 306 307 305 304
311 313 314 308 310 308 305 307 307 308 307 306 304 307 306 302 304 303 307 306 305 309 304 301 294 296 294 300 299 296 298 298 298 298 295 295 295 300 306 307 305 305 305 306 307
323 322 314 307 310 307 308 311 310 309 310 310 309 307 305 307 309 307 307 308 309 307 303 300 299 295 291 300 297 291 296 298 299 300 298 293 300 305 304 304 305 305 305 306 307
Wind_Speed
11 11 11 10 9 8 9 9 8 9 11 11 11 10 9 11 11 3 4 9 2 11 5 6 4 4 2 5 5 4 6 2 3 5 3 9 5 3 3 6 4 3 4 9 12
11 12 11 11 10 9 9 9 9 9 11 10 10 10 9 9 2 4 8 9 7 11 3 3 1 7 3 4 3 6 5 3 6 5 6 8 6 7 5 8 6 12 11 11 8
13 12 12 11 11 9 9 9 9 10 10 10 10 10 9 6 1 5 7 10 10 8 1 3 4 3 7 6 2 3 5 6 12 9 11 6 9 4 13 3 5 13 13 16 9
13 14 14 12 12 10 9 9 10 10 9 9 10 9 10 2 3 1 10 10 10 5 2 5 4 5 5 4 3 7 4 7 4 9 7 4 8 4 2 4 11 6 9 11 13
13 13 13 12 11 10 9 9 10 9 9 9 9 9 2 2 7 4 13 11 6 2 5 5 5 5 4 5 2 6 3 5 10 12 12 9 7 6 9 8 11 11 8 12 10
14 13 12 11 11 10 9 9 9 8 9 9 7 8 2 2 2 10 11 9 4 4 5 5 3 4 6 5 5 4 8 4 8 11 8 13 5 2 6 9 8 12 8 8 11
14 14 13 13 12 11 10 11 10 8 8 8 4 3 1 7 0 6 10 7 10 6 4 2 9 7 4 4 4 12 7 4 3 3 4 11 3 5 6 7 6 9 6 4 6
14 13 14 13 13 12 12 13 10 8 8 6 3 2 5 4 6 5 2 4 5 6 2 10 10 11 5 4 5 4 5 6 3 5 5 4 1 7 8 10 7 7 6 7 9
16 13 14 14 15 14 15 14 11 6 3 2 1 0 6 2 3 6 6 5 5 5 7 8 7 5 3 5 4 6 3 4 3 4 3 2 4 10 9 7 8 9 7 2 6
17 15 14 14 15 15 19 7 8 6 2 3 4 2 3 2 4 4 6 5 6 8 5 2 5 4 3 3 5 6 4 4 5 1 6 8 6 10 10 9 7 7 6 12 7
17 16 14 14 13 12 10 3 5 4 2 6 3 3 4 5 1 3 3 3 4 7 4 4 5 1 5 7 3 3 5 9 2 4 7 7 9 2 2 5 8 12 11 9 10
17 17 15 13 11 9 2 5 3 5 8 9 5 6 5 4 4 6 1 4 3 3 3 6 1 5 1 3 3 2 6 4 5 6 7 7 11 9 8 8 14 17 14 10 6
17 16 16 13 11 3 0 5 4 3 2 6 6 5 4 8 6 9 8 3 3 2 4 3 4 3 4 3 4 4 4 6 8 9 7 7 6 4 2 4 1 4 3 2 4
16 14 14 16 3 2 5 2 3 4 5 6 3 6 5 6 3 8 6 6 1 6 7 2 1 4 4 4 6 3 6 14 19 5 3 1 0 2 0 6 4 3 2 2 3
15 14 13 8 3 2 6 9 6 3 4 3 4 1 2 8 4 2 1 5 4 2 5 2 1 5 4 4 2 2 6 19 7 7 6 7 5 2 1 5 6 6 6 5 7
15 13 11 2 1 6 9 8 3 8 2 6 2 4 5 1 1 4 5 7 4 5 6 2 3 4 1 3 1 10 19 11 6 4 5 3 3 3 1 3 4 5 10 7 7
14 11 6 4 3 6 7 5 7 4 5 7 2 2 7 6 7 5 5 7 3 4 4 5 5 1 4 3 4 6 5 1 2 6 0 5 5 5 4 3 4 8 9 6 5
17 9 7 5 1 6 4 7 2 3 4 5 5 2 6 6 7 7 4 6 6 5 4 3 8 7 12 4 2 4 5 5 5 4 2 5 2 4 4 1 1 1 4 5 6
15 1 3 4 6 2 7 4 4 3 5 5 6 7 3 4 9 7 6 3 4 6 3 5 3 2 9 4 3 4 5 3 8 3 4 2 1 6 3 2 2 4 1 4 6
2 3 4 1 5 6 6 4 4 6 3 2 3 6 3 4 6 4 3 4 4 6 1 1 6 6 3 7 8 5 2 1 4 5 3 1 0 4 6 4 3 4 6 7 7
2 4 4 3 4 7 3 5 5 7 2 4 2 4 3 3 5 3 3 2 3 2 7 3 5 6 5 5 4 6 5 6 6 4 4 4 3 5 4 3 3 7 8 8 9
2 4 3 2 6 1 1 2 6 6 8 7 6 6 5 5 6 4 4 3 5 1 5 5 6 4 2 4 2 4 3 3 5 0 2 4 2 5 4 5 4 6 7 7 5
2 2 3 6 3 2 5 3 3 9 6 6 7 5 4 3 6 2 3 4 9 5 3 3 2 3 7 7 8 7 6 4 6 4 2 4 4 7 8 7 7 7 8 6 5
3 3 5 6 1 5 1 4 4 7 7 6 4 4 6 8 6 3 4 8 5 5 9 9 3 5 5 4 2 4 7 5 6 5 1 2 4 13 14 10 11 16 12 5 3
3 1 3 1 2 4 3 2 5 5 5 7 8 5 5 3 5 4 4 3 7 8 7 8 6 5 6 9 10 7 9 11 8 1 4 2 5 6 12 11 13 12 12 10 8
2 3 4 2 1 3 2 1 8 4 5 4 8 3 5 3 4 4 5 3 2 6 5 4 3 6 7 11 13 10 7 9 9 6 5 4 4 2 6 6 11 9 11 10 11
1 1 5 2 1 3 1 2 3 5 9 6 6 8 7 3 5 4 5 5 6 6 2 4 5 3 4 4 6 7 4 8 5 5 1 4 4 5 4 4 5 7 8 10 12
Wind_Direction
337 331 332 321 316 332 334 342 335 323 311 308 311 309 308 310 307 156 227 215 113 123 196 142 168 175 82 96 108 122 70 76 175 152 203 150 124 54 76 100 64 38 71 116 121
340 333 329 336 335 337 338 332 325 324 303 307 307 305 315 324 287 242 250 134 139 161 164 121 33 139 127 130 117 92 94 163 173 202 166 144 115 132 128 122 114 97 94 118 122
338 337 336 334 335 338 327 326 318 314 301 305 304 312 314 324 3 246 160 148 134 195 146 124 148 71 61 16 44 92 127 168 200 152 126 96 105 116 125 111 153 140 138 155 146
338 337 335 337 343 330 325 324 315 304 302 300 303 317 315 205 131 222 136 133 149 205 128 104 74 39 81 60 319 90 87 203 159 143 108 91 102 96 92 162 121 110 138 137 128
338 335 332 332 327 320 316 317 298 297 295 299 309 328 332 26 250 134 119 137 123 180 164 152 108 128 113 108 73 67 74 19 69 77 70 84 85 118 107 97 115 120 127 133 125
333 333 329 326 322 311 309 298 287 289 292 292 316 320 341 47 179 151 136 125 152 175 206 117 121 123 86 73 76 129 95 79 54 74 119 118 142 117 173 146 120 118 129 139 135
334 331 330 328 323 311 305 291 281 283 285 293 295 281 67 225 315 162 144 176 171 190 164 167 139 73 128 89 141 134 107 50 36 116 85 160 65 114 119 111 126 141 144 159 153
334 326 326 324 315 309 298 284 282 272 275 284 193 201 245 274 108 137 155 293 191 205 106 117 102 99 88 71 46 123 109 144 27 156 210 282 140 147 156 155 158 158 157 195 198
333 326 324 323 318 312 306 300 282 257 220 157 134 239 303 151 167 210 157 239 144 75 100 113 61 87 76 98 37 5 233 98 113 338 135 106 128 186 154 175 174 153 148 293 288
332 328 321 320 321 324 311 275 118 125 152 189 256 17 294 199 251 187 201 244 73 96 69 181 73 106 65 111 197 206 228 107 134 237 82 96 101 169 182 196 177 99 164 213 243
332 327 320 321 323 335 351 1 4 15 27 217 210 200 275 282 250 274 193 163 79 72 120 2 65 222 237 215 224 190 119 107 82 208 86 91 112 108 236 247 203 143 240 224 227
331 327 320 318 319 321 295 97 189 170 303 231 234 275 264 106 346 299 317 101 103 258 100 36 172 267 218 214 243 103 112 83 47 105 94 113 81 66 76 89 130 179 187 214 212
330 322 316 317 314 309 45 232 116 311 182 294 193 200 214 129 210 261 163 138 173 247 72 127 231 96 52 348 347 301 135 170 135 85 70 137 68 76 67 25 222 170 193 186 211
326 320 317 317 322 307 274 271 273 174 67 283 233 267 127 122 264 208 196 129 354 211 137 145 260 184 173 172 160 284 114 127 140 124 106 93 64 43 360 332 303 239 249 233 246
323 322 319 338 306 294 290 319 326 74 69 272 238 340 125 153 198 348 159 64 159 128 103 244 91 32 31 315 121 266 99 150 150 96 113 11 85 272 89 301 273 241 262 250 242
320 320 326 231 201 252 289 301 64 43 310 320 250 191 129 287 318 62 61 54 112 86 18 152 69 58 238 296 295 111 85 70 45 70 60 294 117 310 241 283 288 230 239 225 229
315 307 290 319 241 303 309 35 42 111 315 338 324 334 63 355 35 74 60 35 64 97 5 18 34 327 355 48 354 95 88 21 325 28 201 348 57 237 288 244 236 245 241 230 223
319 304 228 234 295 339 39 51 117 245 264 272 302 155 137 125 16 15 67 45 2 55 69 80 0 13 321 28 295 21 122 152 245 164 195 353 25 270 228 305 352 330 242 209 204
319 225 274 267 193 136 66 67 211 214 261 335 354 53 32 71 123 72 47 22 23 1 124 128 80 289 24 10 43 325 48 151 108 63 82 264 311 329 19 244 39 19 61 221 198
352 354 267 233 164 62 70 238 240 210 273 61 74 42 39 18 90 90 52 324 339 18 187 129 121 18 10 20 12 76 299 159 22 132 130 323 312 247 334 347 205 215 249 236 234
34 47 272 181 75 49 128 236 273 261 169 90 110 72 37 102 66 78 20 263 320 7 57 73 81 331 50 19 306 341 8 51 107 89 144 168 258 215 265 296 205 243 248 231 232
87 74 316 92 57 30 240 262 328 338 38 32 72 57 48 47 51 77 101 34 351 68 43 1 103 81 120 295 282 115 67 91 111 194 44 107 276 330 238 257 236 242 257 253 252
65 262 327 88 113 307 300 321 5 26 23 34 41 63 32 67 99 64 110 359 22 57 125 151 91 93 333 354 3 31 348 95 100 76 22 107 258 357 1 322 357 338 334 325 9
69 46 338 51 94 123 337 347 31 345 50 46 44 53 54 28 20 125 88 24 39 57 68 88 80 143 152 177 135 32 15 16 90 82 162 21 25 358 1 10 9 1 356 42 116
54 254 190 214 331 158 118 6 68 29 32 22 18 55 105 70 45 65 75 75 23 354 40 95 81 73 70 96 86 64 60 49 58 133 108 180 76 356 15 33 22 352 358 1 7
94 87 22 14 92 40 67 356 76 30 28 3 102 10 48 94 183 143 126 98 161 10 59 15 120 106 79 91 82 67 38 50 35 30 59 77 73 24 23 62 31 353 12 338 349
289 26 111 257 58 45 212 95 102 118 30 46 123 95 84 119 86 69 72 81 137 126 100 83 120 83 175 132 113 48 40 88 80 36 40 29 353 322 326 27 23 322 345 345 343